SCP
0 0 0 0 0 0 0 0 0 0 0 0 0 0 -0 0 0 -0 0 -0 0 0 0 0 0 0 0 0 0 0 0 0 0 0 0 0 0 0 0 0 0 0 0 0
0 0 0 0 0 0 0 0 0 0 0 0 0 -0 -0 -0 0 -0 0 0 0 0 0 0 0 0 0 0 0 0 0 0 0 0 0 0 0 0 0 0 0 0 0 0
0 0 0 0 0 0 0 0 0 0 0 0 0 -0 -0 -0 0 0 -0 0 0 0 0 0 0 0 0 0 0 0 0 0 0 0 0 0 0 0 0 0 0 0 0 0
0 0 0 0 0 0 0 0 0 0 0 0 0 -0 -0 -0 -0 -0 0 0 0 0 0 0 0 0 -0 -0 -0 -0 0 0 0 0 0 0 0 0 0 0 0 0 0 0
0 0 0 0 0 0 0 0 0 0 0 0 0 0 0 0 -0 -0 0 0 0 -0 0 0 0 -0 0 -0 -0 -0 -0 0 0 0 0 0 0 0 0 0 0 0 0 0
0 0 0 0 0 0 0 0 0 0 0 0 -0 0 -0 -0 -0 0 0 0 -0 0 0 0 0 0 -0 -0 -0 -0 -0 -0 0 0 0 0 0 0 0 0 0 0 0 0
0 0 0 0 0 0 0 0 0 0 0 0 0 0 0 0 0 0 0 0 0 0 0 0 0 0 -0 -0 -0 -0 -0 -0 -0 0 0 0 0 0 0 0 0 0 0 0
0 0 0 -0 0 0 0 0 0 0 0 0 0 0 0 0 0 0 0 0 0 0 0 0 0 -0 -0 -0 -0 -0 -0 0 -0 0 0 0 0 0 0 0 0 0 0 0
0 0 0 0 0 0 0 0 0 0 0 0 0 0 0 0 0 0 0 0 0 0 0 -0 -0 -0 -0 -0 0 -0 0 0 0 -0 -0 0 0 0 0 0 0 0 0 0
0 0 -0 0 0 0 0 0 0 0 0 0 0 0 0 0 0 0 0 0 0 0 0 0 0 0 0 0 0 0 0 0 0 -0 0 0 0 0 0 0 0 0 0 0
0 0 0 0 0 0 0 0 0 0 0 0 0 0 0 0 0 0 0 0 0 0 0 0 0 0 0 0 0 0 0 0 -0 -0 -0 0 0 0 0 0 0 0 0 0
0 0 0 0 0 0 0 0 0 0 0 0 0 0 0 0 0 0 0 0 0 0 0 0 0 0 0 0 0 0 0 0 0 0 0 0 0 0 0 0 0 0 0 0
0 0 0 0 0 0 0 0 0 0 0 0 0 0 0 0 0 0 -0 0 0 0 0 0 0 0 0 0 0 0 0 0 0 0 0 0 0 0 0 0 0 0 0 0
0 0 0 0 0 0 0 0 0 0 0 0 0 0 0 0 0 0 -0 0 0 0 0 0 -0 -0 -0 -0 0 0 0 0 0 0 0 0 0 0 0 0 0 0 0 0
0 0 0 0 0 0 0 0 0 0 0 0 0 0 0 0 0 -0 0 0 0 0 0 -0 -0 -0 -0 -0 0 0 0 0 0 0 0 0 0 -0 -0 0 0 0 0 0
0 0 0 0 0 0 0 0 0 0 0 0 0 -0 0 0 0 0 0 0 0 0 0 -0 -0 -0 -0 -0 -0 -0 -0 0 0 0 0 0 0 0 0 -0 -0 0 0 0
0 0 0 0 0 0 0 0 0 0 0 0 0 0 0 0 0 0 0 0 0 0 0 0 -0 -0 -0 -0 -0 -0 0 0 0 0 0 0 0 0 0 0 0 -0 0 0
0 0 0 0 0 0 0 0 0 0 0 0 0 0 0 0 0 0 -0 -0 -0 -0 0 0 -0 -0 -0 -0 -0 -0 -0 -0 -0 -0 0 0 0 0 0 0 0 0 0 0
0 0 0 0 0 0 0 0 0 0 0 0 0 0 -0 -0 0 0 -0 -0 -0 -0 -0 -0 -0 -0 -0 -0 -0 -0 -0 -0 -0 -0 -0 -0 -0 0 0 0 0 0 0 0
0 0 0 0 0 0 0 0 0 0 0 0 0 0 0 -0 0 0 -0 0 0 0 0 0 0 0 0 -0 -0 -0 -0 -0 -0 0 0 -0 -0 -0 -0 0 0 0 0 0
0 0 0 0 0 0 0 0 0 0 0 0 0 0 0 0 0 0 0 0 0 0 0 0 0 0 0 0 -0 -0 -0 -0 -0 -0 -0 -0 0 0 -0 -0 -0 -0 0 0
0 0 0 0 0 0 0 0 0 0 0 0 0 0 0 0 0 0 0 0 0 0 0 0 0 0 0 0 0 0 0 -0 -0 -0 -0 -0 -0 -0 0 0 0 0 0 0
0 0 0 0 0 0 0 0 0 0 0 0 0 0 0 0 0 0 0 0 0 0 0 0 0 0 0 0 0 0 0 0 -0 -0 -0 -0 -0 -0 -0 -0 0 0 0 0
0 0 0 0 0 0 0 0 0 0 0 0 0 0 0 0 0 0 0 0 0 0 0 0 0 0 0 0 0 0 0 0 -0 -0 -0 -0 -0 -0 -0 -0 -0 0 0 0
0 0 0 0 0 0 0 0 0 0 0 0 0 0 0 0 0 0 0 0 0 0 0 0 0 0 0 0 0 0 0 0 0 -0 -0 -0 -0 -0 -0 -0 -0 -0 0 0
0 0 0 0 0 0 0 0 0 0 0 0 0 0 0 0 0 0 0 0 0 0 0 0 0 0 0 0 0 0 0 0 0 0 0 -0 -0 -0 -0 -0 -0 0 0 0
Wind_Speed_500mb
9 7 16 36 25 7 5 9 12 22 26 8 29 33 36 55 57 70 75 76 80 71 73 56 47 45 40 40 45 47 55 62 74 83 94 103 108 107 110 107 104 101 100 95
7 12 29 5 8 17 14 11 24 15 23 9 26 33 41 41 58 68 63 83 49 58 58 48 48 42 39 38 36 36 39 46 59 79 90 103 108 113 115 114 113 109 106 102
19 13 14 13 8 17 9 13 21 22 15 10 16 17 8 16 28 47 79 61 62 61 47 41 39 27 33 42 41 36 45 54 57 63 81 96 107 110 117 127 123 119 114 112
13 11 12 6 15 14 16 18 25 14 5 8 10 21 6 15 26 31 35 47 38 40 37 31 31 42 55 62 64 55 45 47 60 66 80 91 102 111 116 116 118 122 120 117
12 8 6 8 16 13 18 4 7 7 7 8 8 8 7 5 16 19 14 15 22 22 36 33 37 57 66 72 71 56 56 59 52 60 71 84 95 103 109 112 113 119 122 121
13 3 8 12 4 10 2 2 7 7 4 5 22 17 2 8 8 2 3 20 28 41 36 36 44 69 85 72 72 68 79 79 65 59 62 75 88 94 104 110 108 108 110 119
5 8 7 9 2 3 5 10 8 8 1 18 6 7 13 16 11 16 19 48 51 41 36 44 74 83 78 69 66 74 73 71 68 62 56 63 75 88 98 101 103 105 106 110
9 32 13 10 17 15 12 16 9 9 11 32 3 26 10 15 10 8 20 20 26 34 60 62 66 68 66 67 67 69 62 58 61 62 56 56 65 73 85 95 98 105 103 103
10 16 5 13 9 11 8 9 4 3 3 10 22 43 26 22 11 12 17 21 32 55 61 61 54 51 55 55 52 54 54 51 54 60 57 52 51 60 76 84 89 96 96 96
11 29 12 5 6 5 12 6 11 3 4 38 40 38 32 24 21 14 19 45 57 51 55 55 53 56 55 54 48 44 52 58 55 53 55 55 53 53 57 72 83 85 84 90
9 2 9 1 11 17 2 7 8 6 12 18 17 24 10 4 17 28 26 41 51 60 62 57 57 57 56 56 56 55 56 59 62 62 56 52 54 54 55 60 65 72 80 84
14 7 12 21 13 14 17 31 29 19 14 14 19 30 48 22 20 32 29 31 39 45 52 56 57 57 63 67 70 64 60 57 60 64 63 58 53 51 55 60 66 66 65 73
9 8 12 19 8 8 4 3 4 11 10 32 31 30 27 42 41 30 27 31 40 47 52 58 61 65 73 74 75 78 72 69 68 69 70 68 64 61 54 58 60 67 67 68
5 9 25 27 25 18 14 14 12 10 10 21 19 31 39 41 32 33 24 24 28 37 47 54 60 59 67 68 74 76 78 80 81 74 73 77 78 73 67 57 56 61 64 72
7 19 17 30 14 13 11 19 28 33 34 25 42 54 49 8 16 34 26 21 23 30 36 37 45 48 60 62 63 70 72 76 85 88 78 76 81 85 76 69 62 58 62 68
10 7 12 12 21 19 32 30 39 38 43 47 47 48 15 5 18 29 43 42 38 36 42 42 49 53 60 64 66 65 64 68 74 80 89 85 85 77 86 81 68 68 64 64
5 4 2 27 24 12 14 37 40 37 3 4 10 5 1 10 17 21 41 45 47 63 71 68 61 59 59 60 64 68 67 66 67 74 78 86 88 92 78 82 79 66 66 67
21 10 5 14 8 10 14 7 6 6 6 6 9 12 18 22 31 30 28 23 45 63 75 68 66 65 62 60 63 67 70 74 75 73 77 83 84 87 92 84 79 74 59 63
31 16 5 5 11 18 28 6 7 6 9 15 12 12 22 29 32 42 23 31 47 60 72 68 71 74 75 73 71 70 72 77 81 82 83 84 86 81 82 84 85 81 75 59
6 22 10 3 8 12 9 6 2 8 11 18 23 15 19 20 7 24 37 39 57 70 74 67 71 74 79 79 81 82 82 82 83 88 93 95 86 87 87 82 79 79 77 74
5 4 22 16 13 14 13 13 4 8 16 17 27 38 34 12 34 65 67 66 67 72 79 71 75 82 86 88 81 83 85 86 87 93 99 101 103 96 87 87 81 75 76 73
10 7 7 4 5 15 10 2 11 15 52 59 58 61 53 58 59 64 69 76 77 82 86 78 85 92 94 90 90 94 96 93 91 96 100 103 106 108 96 89 86 78 72 75
8 13 8 19 13 11 14 37 73 67 53 65 59 68 70 60 66 64 65 76 79 76 80 88 92 99 99 98 94 98 107 104 107 106 104 104 104 109 108 93 89 81 73 75
11 22 18 22 30 36 66 71 71 68 69 77 75 73 59 49 56 59 65 75 76 86 81 76 86 95 107 105 101 104 111 113 114 119 122 114 110 104 106 101 84 80 73 70
18 9 10 27 35 44 60 64 71 62 55 50 49 49 54 57 66 55 75 82 82 83 82 75 77 83 102 100 102 104 102 108 119 120 119 119 111 104 98 101 90 77 79 68
28 31 22 29 49 36 54 64 46 42 49 47 49 57 56 55 68 68 83 82 81 88 87 84 85 85 96 96 101 97 99 103 106 112 108 102 100 99 93 92 96 78 64 64
Wind_Direction_500mb
175 139 194 222 202 156 197 211 246 259 272 296 265 272 272 278 280 273 276 277 276 284 302 309 314 313 311 304 295 287 276 268 256 247 244 242 243 241 240 238 237 235 234 231
59 226 229 117 177 220 239 270 264 285 267 186 273 276 274 264 262 266 271 277 288 295 305 318 323 332 337 330 319 301 289 277 265 253 250 246 245 242 241 240 236 234 232 232
200 225 212 196 212 242 192 221 260 252 322 249 305 270 226 260 241 271 272 274 287 290 303 322 337 351 13 11 356 317 293 284 272 263 253 248 244 242 241 238 236 234 231 230
235 264 194 143 234 181 265 231 249 270 11 254 32 297 183 244 269 264 286 296 300 305 320 0 17 27 16 5 1 354 332 299 284 269 257 252 249 246 246 244 241 237 234 232
248 173 158 183 223 152 229 126 193 194 197 347 334 292 230 175 252 276 294 316 342 25 25 20 19 3 357 353 353 356 1 347 305 285 269 259 254 253 250 246 243 240 235 231
248 328 198 223 188 196 113 34 50 56 112 263 213 203 9 177 218 321 283 350 21 16 12 6 354 350 352 353 353 349 350 352 343 314 283 270 259 254 250 247 244 242 239 233
296 224 250 186 228 338 112 67 310 303 329 260 19 265 253 281 239 359 344 346 349 350 355 356 347 350 351 353 352 349 350 352 347 333 305 281 271 261 257 254 251 247 242 236
299 297 181 173 202 209 179 172 178 252 282 289 96 262 255 232 274 58 333 339 17 352 338 350 358 352 347 345 340 338 343 347 346 344 332 304 282 270 262 260 256 255 250 246
217 252 279 195 173 163 173 192 276 271 151 284 267 273 267 217 64 49 15 6 352 335 352 357 358 359 354 348 347 345 339 343 342 341 339 333 307 282 272 266 261 260 259 254
222 282 211 210 117 233 172 140 269 324 262 260 270 271 256 295 346 14 15 5 15 20 15 9 2 360 359 357 352 344 345 346 343 336 332 326 319 311 290 275 268 264 262 257
54 215 277 171 202 222 104 216 223 254 198 247 253 259 285 31 34 61 39 23 19 15 8 4 359 356 356 351 350 351 344 343 340 341 330 318 312 306 298 288 279 270 267 260
191 216 251 249 249 216 215 240 227 233 226 212 236 250 288 38 82 43 29 42 30 18 8 358 355 353 354 357 355 353 352 347 345 345 342 331 313 305 295 292 285 276 270 262
170 214 288 295 27 24 161 50 6 328 276 261 274 274 350 327 328 25 27 34 22 17 16 13 3 352 351 350 350 354 357 354 349 345 344 344 337 319 301 293 289 283 275 265
160 207 231 250 276 295 251 267 286 247 253 276 255 286 292 306 324 351 16 19 12 7 -0 4 1 356 355 354 349 344 351 349 347 347 346 345 347 337 321 297 288 282 274 271
346 262 266 265 305 328 264 269 268 260 263 265 285 283 280 37 348 337 331 322 334 340 349 354 351 343 348 350 347 344 343 348 344 336 339 342 342 343 336 319 295 281 275 271
356 299 349 292 298 287 291 294 275 276 271 261 266 269 87 76 317 320 318 317 320 327 335 342 341 341 341 340 339 339 342 341 333 334 338 333 330 335 341 337 316 293 280 275
234 240 264 275 289 337 298 251 267 270 169 250 275 52 24 292 301 303 304 307 313 325 332 333 334 334 334 334 335 337 338 336 333 330 328 331 331 326 330 336 335 314 290 282
240 207 195 272 55 256 275 44 104 212 140 159 160 203 208 243 279 287 300 281 316 321 323 321 324 324 326 328 328 327 330 335 335 335 332 328 326 327 323 322 328 330 310 284
222 230 267 223 210 292 301 216 164 157 241 194 201 227 247 281 276 279 246 281 309 319 321 313 317 318 318 321 325 324 326 330 330 330 329 328 326 323 320 317 317 317 320 307
188 218 188 119 204 223 244 231 25 123 277 202 208 231 245 272 234 281 283 287 311 315 317 307 311 312 312 313 316 315 316 320 322 323 324 325 324 322 318 315 312 306 309 310
28 13 216 236 256 291 241 222 177 81 283 228 282 283 268 241 263 285 290 289 300 304 311 305 307 307 309 311 310 307 308 310 315 315 316 317 319 319 316 314 309 304 302 302
185 169 207 87 52 285 228 188 162 266 294 298 296 293 286 291 285 286 290 289 296 302 306 303 305 305 306 305 306 305 304 308 306 307 309 311 313 312 314 311 307 300 295 294
273 191 202 191 217 236 228 267 285 286 283 287 285 290 292 288 286 284 282 293 298 300 302 303 304 304 302 303 304 302 302 304 304 305 304 304 306 307 308 307 302 298 289 287
258 242 246 275 254 255 267 272 276 281 283 287 290 293 296 292 292 293 293 297 301 303 301 300 300 299 300 301 301 298 300 300 300 300 301 301 301 299 299 301 298 293 287 281
239 170 227 254 262 268 266 269 273 280 289 285 287 293 297 300 302 306 303 303 301 299 300 299 296 294 295 297 295 295 295 296 297 297 297 297 297 297 294 292 292 287 283 277
240 252 245 255 267 256 284 293 287 286 290 293 297 299 302 307 307 307 303 304 303 303 303 300 298 295 294 294 292 291 292 293 293 293 293 293 293 291 289 288 288 283 272 266
Wind_Speed_850mb
9 7 16 36 25 7 5 9 12 22 26 8 29 33 36 55 57 70 75 76 80 71 73 56 47 45 40 40 45 47 55 62 74 83 94 103 108 107 110 107 104 101 100 95
7 12 29 5 8 17 14 11 24 15 23 9 26 33 41 41 58 68 63 83 49 58 58 48 48 42 39 38 36 36 39 46 59 79 90 103 108 113 115 114 113 109 106 102
19 13 14 13 8 17 9 13 21 22 15 10 16 17 8 16 28 47 79 61 62 61 47 41 39 27 33 42 41 36 45 54 57 63 81 96 107 110 117 127 123 119 114 112
13 11 12 6 15 14 16 18 25 14 5 8 10 21 6 15 26 31 35 47 38 40 37 31 31 42 55 62 64 55 45 47 60 66 80 91 102 111 116 116 118 122 120 117
12 8 6 8 16 13 18 4 7 7 7 8 8 8 7 5 16 19 14 15 22 22 36 33 37 57 66 72 71 56 56 59 52 60 71 84 95 103 109 112 113 119 122 121
13 3 8 12 4 10 2 2 7 7 4 5 22 17 2 8 8 2 3 20 28 41 36 36 44 69 85 72 72 68 79 79 65 59 62 75 88 94 104 110 108 108 110 119
5 8 7 9 2 3 5 10 8 8 1 18 6 7 13 16 11 16 19 48 51 41 36 44 74 83 78 69 66 74 73 71 68 62 56 63 75 88 98 101 103 105 106 110
9 32 13 10 17 15 12 16 9 9 11 32 3 26 10 15 10 8 20 20 26 34 60 62 66 68 66 67 67 69 62 58 61 62 56 56 65 73 85 95 98 105 103 103
10 16 5 13 9 11 8 9 4 3 3 10 22 43 26 22 11 12 17 21 32 55 61 61 54 51 55 55 52 54 54 51 54 60 57 52 51 60 76 84 89 96 96 96
11 29 12 5 6 5 12 6 11 3 4 38 40 38 32 24 21 14 19 45 57 51 55 55 53 56 55 54 48 44 52 58 55 53 55 55 53 53 57 72 83 85 84 90
9 2 9 1 11 17 2 7 8 6 12 18 17 24 10 4 17 28 26 41 51 60 62 57 57 57 56 56 56 55 56 59 62 62 56 52 54 54 55 60 65 72 80 84
14 7 12 21 13 14 17 31 29 19 14 14 19 30 48 22 20 32 29 31 39 45 52 56 57 57 63 67 70 64 60 57 60 64 63 58 53 51 55 60 66 66 65 73
9 8 12 19 8 8 4 3 4 11 10 32 31 30 27 42 41 30 27 31 40 47 52 58 61 65 73 74 75 78 72 69 68 69 70 68 64 61 54 58 60 67 67 68
5 9 25 27 25 18 14 14 12 10 10 21 19 31 39 41 32 33 24 24 28 37 47 54 60 59 67 68 74 76 78 80 81 74 73 77 78 73 67 57 56 61 64 72
7 19 17 30 14 13 11 19 28 33 34 25 42 54 49 8 16 34 26 21 23 30 36 37 45 48 60 62 63 70 72 76 85 88 78 76 81 85 76 69 62 58 62 68
10 7 12 12 21 19 32 30 39 38 43 47 47 48 15 5 18 29 43 42 38 36 42 42 49 53 60 64 66 65 64 68 74 80 89 85 85 77 86 81 68 68 64 64
5 4 2 27 24 12 14 37 40 37 3 4 10 5 1 10 17 21 41 45 47 63 71 68 61 59 59 60 64 68 67 66 67 74 78 86 88 92 78 82 79 66 66 67
21 10 5 14 8 10 14 7 6 6 6 6 9 12 18 22 31 30 28 23 45 63 75 68 66 65 62 60 63 67 70 74 75 73 77 83 84 87 92 84 79 74 59 63
31 16 5 5 11 18 28 6 7 6 9 15 12 12 22 29 32 42 23 31 47 60 72 68 71 74 75 73 71 70 72 77 81 82 83 84 86 81 82 84 85 81 75 59
6 22 10 3 8 12 9 6 2 8 11 18 23 15 19 20 7 24 37 39 57 70 74 67 71 74 79 79 81 82 82 82 83 88 93 95 86 87 87 82 79 79 77 74
5 4 22 16 13 14 13 13 4 8 16 17 27 38 34 12 34 65 67 66 67 72 79 71 75 82 86 88 81 83 85 86 87 93 99 101 103 96 87 87 81 75 76 73
10 7 7 4 5 15 10 2 11 15 52 59 58 61 53 58 59 64 69 76 77 82 86 78 85 92 94 90 90 94 96 93 91 96 100 103 106 108 96 89 86 78 72 75
8 13 8 19 13 11 14 37 73 67 53 65 59 68 70 60 66 64 65 76 79 76 80 88 92 99 99 98 94 98 107 104 107 106 104 104 104 109 108 93 89 81 73 75
11 22 18 22 30 36 66 71 71 68 69 77 75 73 59 49 56 59 65 75 76 86 81 76 86 95 107 105 101 104 111 113 114 119 122 114 110 104 106 101 84 80 73 70
18 9 10 27 35 44 60 64 71 62 55 50 49 49 54 57 66 55 75 82 82 83 82 75 77 83 102 100 102 104 102 108 119 120 119 119 111 104 98 101 90 77 79 68
28 31 22 29 49 36 54 64 46 42 49 47 49 57 56 55 68 68 83 82 81 88 87 84 85 85 96 96 101 97 99 103 106 112 108 102 100 99 93 92 96 78 64 64
Wind_Direction_850mb
175 139 194 222 202 156 197 211 246 259 272 296 265 272 272 278 280 273 276 277 276 284 302 309 314 313 311 304 295 287 276 268 256 247 244 242 243 241 240 238 237 235 234 231
59 226 229 117 177 220 239 270 264 285 267 186 273 276 274 264 262 266 271 277 288 295 305 318 323 332 337 330 319 301 289 277 265 253 250 246 245 242 241 240 236 234 232 232
200 225 212 196 212 242 192 221 260 252 322 249 305 270 226 260 241 271 272 274 287 290 303 322 337 351 13 11 356 317 293 284 272 263 253 248 244 242 241 238 236 234 231 230
235 264 194 143 234 181 265 231 249 270 11 254 32 297 183 244 269 264 286 296 300 305 320 0 17 27 16 5 1 354 332 299 284 269 257 252 249 246 246 244 241 237 234 232
248 173 158 183 223 152 229 126 193 194 197 347 334 292 230 175 252 276 294 316 342 25 25 20 19 3 357 353 353 356 1 347 305 285 269 259 254 253 250 246 243 240 235 231
248 328 198 223 188 196 113 34 50 56 112 263 213 203 9 177 218 321 283 350 21 16 12 6 354 350 352 353 353 349 350 352 343 314 283 270 259 254 250 247 244 242 239 233
296 224 250 186 228 338 112 67 310 303 329 260 19 265 253 281 239 359 344 346 349 350 355 356 347 350 351 353 352 349 350 352 347 333 305 281 271 261 257 254 251 247 242 236
299 297 181 173 202 209 179 172 178 252 282 289 96 262 255 232 274 58 333 339 17 352 338 350 358 352 347 345 340 338 343 347 346 344 332 304 282 270 262 260 256 255 250 246
217 252 279 195 173 163 173 192 276 271 151 284 267 273 267 217 64 49 15 6 352 335 352 357 358 359 354 348 347 345 339 343 342 341 339 333 307 282 272 266 261 260 259 254
222 282 211 210 117 233 172 140 269 324 262 260 270 271 256 295 346 14 15 5 15 20 15 9 2 360 359 357 352 344 345 346 343 336 332 326 319 311 290 275 268 264 262 257
54 215 277 171 202 222 104 216 223 254 198 247 253 259 285 31 34 61 39 23 19 15 8 4 359 356 356 351 350 351 344 343 340 341 330 318 312 306 298 288 279 270 267 260
191 216 251 249 249 216 215 240 227 233 226 212 236 250 288 38 82 43 29 42 30 18 8 358 355 353 354 357 355 353 352 347 345 345 342 331 313 305 295 292 285 276 270 262
170 214 288 295 27 24 161 50 6 328 276 261 274 274 350 327 328 25 27 34 22 17 16 13 3 352 351 350 350 354 357 354 349 345 344 344 337 319 301 293 289 283 275 265
160 207 231 250 276 295 251 267 286 247 253 276 255 286 292 306 324 351 16 19 12 7 -0 4 1 356 355 354 349 344 351 349 347 347 346 345 347 337 321 297 288 282 274 271
346 262 266 265 305 328 264 269 268 260 263 265 285 283 280 37 348 337 331 322 334 340 349 354 351 343 348 350 347 344 343 348 344 336 339 342 342 343 336 319 295 281 275 271
356 299 349 292 298 287 291 294 275 276 271 261 266 269 87 76 317 320 318 317 320 327 335 342 341 341 341 340 339 339 342 341 333 334 338 333 330 335 341 337 316 293 280 275
234 240 264 275 289 337 298 251 267 270 169 250 275 52 24 292 301 303 304 307 313 325 332 333 334 334 334 334 335 337 338 336 333 330 328 331 331 326 330 336 335 314 290 282
240 207 195 272 55 256 275 44 104 212 140 159 160 203 208 243 279 287 300 281 316 321 323 321 324 324 326 328 328 327 330 335 335 335 332 328 326 327 323 322 328 330 310 284
222 230 267 223 210 292 301 216 164 157 241 194 201 227 247 281 276 279 246 281 309 319 321 313 317 318 318 321 325 324 326 330 330 330 329 328 326 323 320 317 317 317 320 307
188 218 188 119 204 223 244 231 25 123 277 202 208 231 245 272 234 281 283 287 311 315 317 307 311 312 312 313 316 315 316 320 322 323 324 325 324 322 318 315 312 306 309 310
28 13 216 236 256 291 241 222 177 81 283 228 282 283 268 241 263 285 290 289 300 304 311 305 307 307 309 311 310 307 308 310 315 315 316 317 319 319 316 314 309 304 302 302
185 169 207 87 52 285 228 188 162 266 294 298 296 293 286 291 285 286 290 289 296 302 306 303 305 305 306 305 306 305 304 308 306 307 309 311 313 312 314 311 307 300 295 294
273 191 202 191 217 236 228 267 285 286 283 287 285 290 292 288 286 284 282 293 298 300 302 303 304 304 302 303 304 302 302 304 304 305 304 304 306 307 308 307 302 298 289 287
258 242 246 275 254 255 267 272 276 281 283 287 290 293 296 292 292 293 293 297 301 303 301 300 300 299 300 301 301 298 300 300 300 300 301 301 301 299 299 301 298 293 287 281
239 170 227 254 262 268 266 269 273 280 289 285 287 293 297 300 302 306 303 303 301 299 300 299 296 294 295 297 295 295 295 296 297 297 297 297 297 297 294 292 292 287 283 277
240 252 245 255 267 256 284 293 287 286 290 293 297 299 302 307 307 307 303 304 303 303 303 300 298 295 294 294 292 291 292 293 293 293 293 293 293 291 289 288 288 283 272 266